Location: *
(34.6903°N, 135.5184°E)
Time: 02:12:41
(UTC+00:00)

Okean O Rocket - Pass Details

Date: 22 September 2019
Orbit: 623 x 644 km, 98.2° (Epoch: 22 October)

Event Time Altitude Azimuth Distance (km) Brightness Sun altitude
Rises 19:31:05 0° 28° (NNE) 2,959 5.6 -16.1°
Reaches altitude 10° 19:33:41 10° 42° (NE) 2,044 5.0 -15.6°
Maximum altitude 19:37:16 24° 96° (E) 1,345 4.2 -14.9°
Drops below altitude 10° 19:40:49 10° 150° (SSE) 2,027 4.5 -14.2°
Sets 19:43:22 0° 164° (SSE) 2,928 5.1 -13.7°
